Weather History for Pampa, TX

Change the Weather History Date:

Tuesday, March 5, 2013

  Actual Average Record
Temperature  
Mean Temperature 34 °F -  
Max Temperature 44 °F 54 °F 82 °F (2009)
Min Temperature 24 °F 26 °F 5 °F (1989)
Degree Days  
Heating Degree Days 31    
Moisture  
Dew Point 16 °F    
Average Humidity 51    
Maximum Humidity 87    
Minimum Humidity 27    
Precipitation  
Precipitation 0.00 in - - ()
Sea Level Pressure  
Sea Level Pressure 30.34 in    
Wind  
Wind Speed 14 mph (North)    
Max Wind Speed 24 mph    
Max Gust Speed 29 mph    
Visibility 10 miles    
Events Rain    
Averages and records for this station are not official NWS values.
T = Trace of Precipitation, MM = Missing Value Source: NWS Daily Summary

Daily Weather History Graph

Daily Weather History Graph

Search for Another Location

Airport:

Trip Planner

Search our weather history database for the weather conditions in past years. The results will help you decide how hot, cold, wet, or windy it might be!

Date:

Astronomy

Mar. 05, 2013 Rise Set
Actual Time 7:08 AM CST 6:43 PM CST
Civil Twilight 6:42 AM CST 7:08 PM CST
Nautical Twilight 6:13 AM CST 7:38 PM CST
Astronomical Twilight 5:43 AM CST 8:07 PM CST
Moon 2:13 AM CST (3/5) 12:33 PM CST (3/5)
Length of Visible Light 12h 25m
Length of Day
11h 34m
Last Quarter, 40% of the Moon is Illuminated
Mar 5
Last Quarter
Mar 11
New
Mar 19
First Quarter
Mar 27
Full
Apr 2
Last Quarter

Hourly Weather History & Observations

Time (CST) Temp. Windchill Dew Point Humidity Pressure Visibility Wind Dir Wind Speed Gust Speed Precip Events Conditions
12:15 AM 32.0 °F 18.9 °F 28.4 °F 87% 30.19 in 10.0 mi North 24.2 mph 28.8 mph N/A Rain Light Rain
12:35 AM 32.0 °F 19.5 °F 28.4 °F 87% 30.20 in 10.0 mi North 21.9 mph - N/A   Overcast
12:55 AM 32.0 °F 20.5 °F 28.4 °F 87% 30.22 in 10.0 mi North 18.4 mph - N/A   Overcast
1:15 AM 32.0 °F 21.6 °F 28.4 °F 87% 30.22 in 10.0 mi North 15.0 mph - N/A   Overcast
1:35 AM 32.0 °F 20.8 °F 28.4 °F 87% 30.22 in 10.0 mi North 17.3 mph 23.0 mph N/A   Overcast
2:15 AM 32.0 °F 21.6 °F 28.4 °F 87% 30.24 in 10.0 mi North 15.0 mph - N/A   Mostly Cloudy
2:35 AM 32.0 °F 21.2 °F 28.4 °F 87% 30.24 in 10.0 mi North 16.1 mph - N/A   Scattered Clouds
2:55 AM 32.0 °F 22.1 °F 28.4 °F 87% 30.25 in 10.0 mi North 13.8 mph - N/A   Scattered Clouds
3:15 AM 30.2 °F 19.8 °F 26.6 °F 86% 30.27 in 10.0 mi North 13.8 mph - N/A   Scattered Clouds
3:35 AM 30.2 °F 18.9 °F 26.6 °F 86% 30.26 in 10.0 mi North 16.1 mph - N/A   Clear
3:55 AM 30.2 °F 20.8 °F 24.8 °F 80% 30.28 in 10.0 mi North 11.5 mph 18.4 mph N/A   Clear
4:15 AM 28.4 °F 18.5 °F 23.0 °F 80% 30.27 in 10.0 mi North 11.5 mph - N/A   Clear
4:55 AM 28.4 °F 18.5 °F 21.2 °F 74% 30.30 in 10.0 mi North 11.5 mph - N/A   Clear
5:15 AM 26.6 °F 16.8 °F 21.2 °F 80% 30.32 in 10.0 mi NNW 10.4 mph - N/A   Clear
5:35 AM 26.6 °F 16.8 °F 21.2 °F 80% 30.33 in 10.0 mi NNW 10.4 mph - N/A   Clear
5:55 AM 26.6 °F 15.7 °F 19.4 °F 74% 30.33 in 10.0 mi North 12.7 mph - N/A   Clear
6:15 AM 26.6 °F 16.2 °F 17.6 °F 69% 30.34 in 10.0 mi North 11.5 mph - N/A   Clear
6:35 AM 24.8 °F 12.9 °F 17.6 °F 74% 30.34 in 10.0 mi North 13.8 mph - N/A   Clear
7:15 AM 24.8 °F 14.0 °F 17.6 °F 74% 30.34 in 10.0 mi North 11.5 mph - N/A   Clear
7:35 AM 24.8 °F 12.9 °F 15.8 °F 69% 30.35 in 10.0 mi North 13.8 mph - N/A   Clear
7:55 AM 26.6 °F 15.2 °F 15.8 °F 64% 30.36 in 10.0 mi North 13.8 mph 18.4 mph N/A   Clear
8:15 AM 28.4 °F 18.0 °F 17.6 °F 64% 30.38 in 10.0 mi NNW 12.7 mph - N/A   Clear
8:35 AM 28.4 °F 17.5 °F 15.8 °F 59% 30.39 in 10.0 mi NNW 13.8 mph - N/A   Clear
8:55 AM 30.2 °F 19.3 °F 17.6 °F 60% 30.40 in 10.0 mi NW 15.0 mph - N/A   Clear
9:15 AM 32.0 °F 20.5 °F 19.4 °F 60% 30.41 in 10.0 mi NW 18.4 mph - N/A   Clear
9:35 AM 32.0 °F 19.5 °F 17.6 °F 55% 30.42 in 10.0 mi NNW 21.9 mph 26.5 mph N/A   Clear
9:55 AM 32.0 °F 20.1 °F 10.4 °F 41% 30.41 in 10.0 mi North 19.6 mph 28.8 mph N/A   Clear
10:15 AM 33.8 °F 22.5 °F 8.6 °F 35% 30.42 in 10.0 mi North 19.6 mph 27.6 mph N/A   Clear
10:35 AM 33.8 °F 22.5 °F 8.6 °F 35% 30.41 in 10.0 mi North 19.6 mph 25.3 mph N/A   Clear
10:55 AM 35.6 °F 24.8 °F 8.6 °F 33% 30.41 in 10.0 mi NNW 19.6 mph 25.3 mph N/A   Clear
11:15 AM 35.6 °F 25.5 °F 8.6 °F 33% 30.41 in 10.0 mi NNW 17.3 mph 24.2 mph N/A   Clear
11:35 AM 37.4 °F 28.2 °F 10.4 °F 33% 30.41 in 10.0 mi North 16.1 mph 24.2 mph N/A   Clear
12:15 PM 37.4 °F 29.8 °F 10.4 °F 33% 30.40 in 10.0 mi North 11.5 mph 20.7 mph N/A   Clear
12:35 PM 39.2 °F 31.6 °F 10.4 °F 31% 30.40 in 10.0 mi North 12.7 mph 20.7 mph N/A   Clear
12:55 PM 41.0 °F 33.5 °F 10.4 °F 29% 30.39 in 10.0 mi NNW 13.8 mph 19.6 mph N/A   Clear
1:15 PM 41.0 °F 32.5 °F 10.4 °F 29% 30.39 in 10.0 mi NNW 17.3 mph - N/A   Clear
1:35 PM 41.0 °F 34.3 °F 12.2 °F 31% 30.38 in 10.0 mi NW 11.5 mph 19.6 mph N/A   Clear
1:55 PM 42.8 °F 35.8 °F 12.2 °F 29% 30.37 in 10.0 mi North 13.8 mph 20.7 mph N/A   Clear
2:15 PM 42.8 °F 37.0 °F 12.2 °F 29% 30.36 in 10.0 mi NNW 10.4 mph 18.4 mph N/A   Clear
2:35 PM 42.8 °F 39.3 °F 12.2 °F 29% 30.35 in 10.0 mi NW 5.8 mph 11.5 mph N/A   Clear
2:55 PM 44.6 °F 39.2 °F 12.2 °F 27% 30.35 in 10.0 mi NNW 10.4 mph 17.3 mph N/A   Clear
3:15 PM 44.6 °F 40.2 °F 12.2 °F 27% 30.34 in 10.0 mi NW 8.1 mph - N/A   Clear
3:35 PM 44.6 °F 39.2 °F 12.2 °F 27% 30.34 in 10.0 mi NNW 10.4 mph - N/A   Clear
3:55 PM 44.6 °F 40.2 °F 12.2 °F 27% 30.33 in 10.0 mi North 8.1 mph 17.3 mph N/A   Clear
4:15 PM 44.6 °F 42.2 °F 12.2 °F 27% 30.34 in 10.0 mi NW 4.6 mph - N/A   Clear
4:35 PM 44.6 °F - 12.2 °F 27% 30.33 in 10.0 mi Calm Calm - N/A   Clear
4:55 PM 44.6 °F 40.2 °F 12.2 °F 27% 30.33 in 10.0 mi North 8.1 mph - N/A   Clear
5:15 PM 44.6 °F - 12.2 °F 27% 30.33 in 10.0 mi Calm Calm - N/A   Clear
5:35 PM 44.6 °F 40.7 °F 12.2 °F 27% 30.33 in 10.0 mi North 6.9 mph - N/A   Clear
5:55 PM 44.6 °F 43.1 °F 12.2 °F 27% 30.33 in 10.0 mi NNW 3.5 mph - N/A   Clear
6:15 PM 42.8 °F - 12.2 °F 29% 30.33 in 10.0 mi Calm Calm - N/A   Clear
6:35 PM 39.2 °F 35.9 °F 15.8 °F 39% 30.33 in 10.0 mi North 4.6 mph - N/A   Clear
6:55 PM 41.0 °F - 15.8 °F 36% 30.33 in 10.0 mi Calm Calm - N/A   Clear
7:15 PM 37.4 °F - 14.0 °F 38% 30.33 in 10.0 mi Calm Calm - N/A   Clear
7:35 PM 39.2 °F - 12.2 °F 33% 30.34 in 10.0 mi Calm Calm - N/A   Clear
7:55 PM 37.4 °F - 12.2 °F 36% 30.34 in 10.0 mi Calm Calm - N/A   Clear
8:15 PM 37.4 °F 34.9 °F 14.0 °F 38% 30.34 in 10.0 mi ESE 3.5 mph - N/A   Clear
8:35 PM 35.6 °F 30.7 °F 14.0 °F 41% 30.33 in 10.0 mi East 5.8 mph - N/A   Clear
8:55 PM 35.6 °F 31.7 °F 14.0 °F 41% 30.34 in 10.0 mi East 4.6 mph - N/A   Clear
9:15 PM 33.8 °F 28.6 °F 14.0 °F 44% 30.34 in 10.0 mi ESE 5.8 mph - N/A   Clear
9:35 PM 32.0 °F 27.5 °F 14.0 °F 48% 30.34 in 10.0 mi SE 4.6 mph - N/A   Clear
9:55 PM 33.8 °F 27.0 °F 14.0 °F 44% 30.34 in 10.0 mi SE 8.1 mph - N/A   Clear
10:15 PM 33.8 °F 27.7 °F 14.0 °F 44% 30.34 in 10.0 mi SE 6.9 mph - N/A   Clear
10:35 PM 32.0 °F 25.6 °F 14.0 °F 48% 30.34 in 10.0 mi SE 6.9 mph - N/A   Clear
10:55 PM 32.0 °F 24.8 °F 14.0 °F 48% 30.34 in 10.0 mi SE 8.1 mph - N/A   Clear
11:15 PM 32.0 °F 24.2 °F 14.0 °F 48% 30.34 in 10.0 mi SSE 9.2 mph - N/A   Clear
11:35 PM 32.0 °F 24.8 °F 15.8 °F 51% 30.34 in 10.0 mi SSE 8.1 mph - N/A   Clear
11:55 PM 32.0 °F 24.2 °F 15.8 °F 51% 30.33 in 10.0 mi SSE 9.2 mph - N/A   Clear